Location: Habighorst
(52.7089°N, 10.2278°E)
Time: 22:19:56
(UTC+00:00)

NOSS 8 (E) - Pass Details

Date: 13 January 2026
Orbit: 364 x 1530 km, 63.3° (Epoch: 7 February)

Event Time Altitude Azimuth Distance (km) Brightness Sun altitude
Exits shadow 05:23:45 41° 349° (NNW) 560 4.6 -17.5°
Maximum altitude 05:24:28 54° 39° (NE) 466 4.5 -17.4°
Drops below altitude 10° 05:27:34 10° 119° (ESE) 1,481 8.2 -17.0°
Sets 05:29:49 0° 124° (SE) 2,450 9.5 -16.6°
